TimeCST,TemperatureF,Dew PointF,Humidity,Sea Level PressureIn,VisibilityMPH,Wind Direction,Wind SpeedMPH,Gust SpeedMPH,PrecipitationIn,Events,Conditions,WindDirDegrees,DateUTC
12:15 AM,1.4,-2.2,85,30.07,7.0,Calm,Calm,-,N/A,,Clear,0,2012-12-29 06:15:00
12:35 AM,-0.4,-4.0,85,30.07,7.0,Calm,Calm,-,N/A,,Scattered Clouds,0,2012-12-29 06:35:00
12:55 AM,1.4,-0.4,92,30.07,1.2,Calm,Calm,-,N/A,Snow,Light Snow,0,2012-12-29 06:55:00
1:15 AM,1.4,-0.4,92,30.07,7.0,Calm,Calm,-,N/A,,Clear,0,2012-12-29 07:15:00
1:35 AM,1.4,-2.2,85,30.07,7.0,Calm,Calm,-,N/A,,Clear,0,2012-12-29 07:35:00
1:55 AM,-0.4,-2.2,92,30.07,7.0,Calm,Calm,-,N/A,,Clear,0,2012-12-29 07:55:00
2:15 AM,-2.2,-5.8,85,30.08,7.0,Calm,Calm,-,N/A,,Scattered Clouds,0,2012-12-29 08:15:00
2:35 AM,-2.2,-5.8,85,30.08,7.0,Calm,Calm,-,N/A,,Scattered Clouds,0,2012-12-29 08:35:00
2:55 AM,-2.2,-5.8,85,30.08,7.0,Calm,Calm,-,N/A,,Scattered Clouds,0,2012-12-29 08:55:00
3:15 AM,-0.4,-4.0,85,30.08,7.0,Calm,Calm,-,N/A,,Clear,0,2012-12-29 09:15:00
3:34 AM,-2.2,-7.6,78,30.08,7.0,Calm,Calm,-,N/A,,Clear,0,2012-12-29 09:34:00
3:55 AM,-2.2,-7.6,78,30.08,7.0,Calm,Calm,-,N/A,,Clear,0,2012-12-29 09:55:00
4:15 AM,-2.2,-5.8,85,30.07,7.0,Calm,Calm,-,N/A,,Clear,0,2012-12-29 10:15:00
4:35 AM,-4.0,-7.6,85,30.07,7.0,Calm,Calm,-,N/A,,Clear,0,2012-12-29 10:35:00
4:55 AM,-2.2,-5.8,85,30.07,7.0,Calm,Calm,-,N/A,,Clear,0,2012-12-29 10:55:00
5:15 AM,-2.2,-5.8,85,30.06,7.0,Calm,Calm,-,N/A,,Clear,0,2012-12-29 11:15:00
5:35 AM,-0.4,-4.0,85,30.06,7.0,Calm,Calm,-,N/A,,Clear,0,2012-12-29 11:35:00
6:15 AM,1.4,-2.2,85,30.07,10.0,Calm,Calm,-,N/A,,Scattered Clouds,0,2012-12-29 12:15:00
6:35 AM,1.4,-2.2,85,30.06,10.0,Calm,Calm,-,N/A,,Scattered Clouds,0,2012-12-29 12:35:00
6:55 AM,1.4,-2.2,85,30.07,10.0,Calm,Calm,-,N/A,,Clear,0,2012-12-29 12:55:00
7:15 AM,-0.4,-2.2,92,30.08,10.0,Calm,Calm,-,N/A,,Clear,0,2012-12-29 13:15:00
7:35 AM,-0.4,-2.2,92,30.08,10.0,Calm,Calm,-,N/A,,Clear,0,2012-12-29 13:35:00
7:55 AM,-0.4,-2.2,92,30.08,10.0,Calm,Calm,-,N/A,,Scattered Clouds,0,2012-12-29 13:55:00
8:15 AM,-0.4,-4.0,85,30.09,10.0,Calm,Calm,-,N/A,,Overcast,0,2012-12-29 14:15:00
8:35 AM,3.2,-0.4,85,30.09,10.0,Calm,Calm,-,N/A,,Overcast,0,2012-12-29 14:35:00
8:55 AM,3.2,-0.4,85,30.09,10.0,Calm,Calm,-,N/A,,Overcast,0,2012-12-29 14:55:00
9:15 AM,5.0,1.4,85,30.10,10.0,Calm,Calm,-,N/A,,Overcast,0,2012-12-29 15:15:00
9:35 AM,3.2,1.4,92,30.10,10.0,Calm,Calm,-,N/A,,Scattered Clouds,0,2012-12-29 15:35:00
9:56 AM,3.2,1.4,92,30.11,10.0,Calm,Calm,-,N/A,,Clear,0,2012-12-29 15:56:00
10:15 AM,5.0,3.2,92,30.11,10.0,Calm,Calm,-,N/A,,Clear,0,2012-12-29 16:15:00
10:35 AM,6.8,3.2,85,30.12,10.0,Calm,Calm,-,N/A,,Clear,0,2012-12-29 16:35:00
10:55 AM,6.8,3.2,85,30.12,10.0,WNW,4.6,-,N/A,,Clear,290,2012-12-29 16:55:00
11:15 AM,8.6,5.0,85,30.11,10.0,WNW,3.5,-,N/A,,Clear,290,2012-12-29 17:15:00
11:35 AM,8.6,5.0,85,30.10,10.0,West,3.5,-,N/A,,Clear,270,2012-12-29 17:35:00
11:55 AM,8.6,5.0,85,30.11,10.0,West,4.6,-,N/A,,Scattered Clouds,270,2012-12-29 17:55:00
12:15 PM,8.6,5.0,85,30.10,10.0,West,6.9,-,N/A,,Clear,280,2012-12-29 18:15:00
12:35 PM,8.6,5.0,85,30.10,10.0,West,6.9,-,N/A,,Clear,280,2012-12-29 18:35:00
12:55 PM,8.6,5.0,85,30.10,10.0,West,6.9,-,N/A,,Mostly Cloudy,280,2012-12-29 18:55:00
1:15 PM,8.6,5.0,85,30.10,7.0,West,8.1,-,N/A,Snow,Light Snow,270,2012-12-29 19:15:00
1:35 PM,8.6,3.2,79,30.09,10.0,WNW,5.8,-,N/A,Snow,Light Snow,290,2012-12-29 19:35:00
1:55 PM,8.6,3.2,79,30.09,10.0,West,5.8,-,N/A,,Clear,270,2012-12-29 19:55:00
2:15 PM,8.6,3.2,79,30.09,10.0,West,5.8,-,N/A,,Clear,270,2012-12-29 20:15:00
2:34 PM,8.6,3.2,79,30.09,10.0,West,5.8,-,N/A,,Clear,280,2012-12-29 20:34:00
2:54 PM,8.6,3.2,79,30.09,10.0,West,4.6,-,N/A,,Clear,270,2012-12-29 20:54:00
3:15 PM,8.6,3.2,79,30.10,10.0,West,4.6,-,N/A,,Clear,280,2012-12-29 21:15:00
3:35 PM,10.4,3.2,73,30.10,10.0,West,3.5,-,N/A,,Clear,280,2012-12-29 21:35:00
3:55 PM,8.6,3.2,79,30.10,10.0,WNW,4.6,-,N/A,,Clear,300,2012-12-29 21:55:00
4:14 PM,8.6,1.4,73,30.11,10.0,West,3.5,-,N/A,,Clear,280,2012-12-29 22:14:00
4:35 PM,6.8,1.4,79,30.12,10.0,WNW,3.5,-,N/A,,Clear,300,2012-12-29 22:35:00
5:15 PM,5.0,-0.4,78,30.13,10.0,Calm,Calm,-,N/A,,Clear,0,2012-12-29 23:15:00
5:35 PM,5.0,-0.4,78,30.12,10.0,Calm,Calm,-,N/A,,Clear,0,2012-12-29 23:35:00
5:55 PM,3.2,-0.4,85,30.12,10.0,Calm,Calm,-,N/A,,Clear,0,2012-12-29 23:55:00
6:15 PM,3.2,-0.4,85,30.12,10.0,Calm,Calm,-,N/A,,Clear,0,2012-12-30 00:15:00
6:35 PM,3.2,-0.4,85,30.12,10.0,Calm,Calm,-,N/A,,Clear,0,2012-12-30 00:35:00
6:55 PM,-0.4,-5.8,78,30.13,10.0,Calm,Calm,-,N/A,,Clear,0,2012-12-30 00:55:00
7:15 PM,-0.4,-4.0,85,30.14,10.0,Calm,Calm,-,N/A,,Clear,0,2012-12-30 01:15:00
7:35 PM,-0.4,-2.2,92,30.13,10.0,Calm,Calm,-,N/A,,Clear,0,2012-12-30 01:35:00
7:55 PM,-0.4,-2.2,92,30.13,10.0,Calm,Calm,-,N/A,,Clear,0,2012-12-30 01:55:00
8:15 PM,-0.4,-4.0,85,30.13,10.0,Calm,Calm,-,N/A,,Clear,0,2012-12-30 02:15:00
8:35 PM,-2.2,-7.6,78,30.13,10.0,Calm,Calm,-,N/A,,Clear,0,2012-12-30 02:35:00
8:55 PM,-0.4,-4.0,85,30.14,10.0,South,3.5,-,N/A,,Clear,180,2012-12-30 02:55:00
9:15 PM,-2.2,-5.8,85,30.13,10.0,Calm,Calm,-,N/A,,Clear,0,2012-12-30 03:15:00
9:35 PM,-2.2,-5.8,85,30.14,10.0,Calm,Calm,-,N/A,,Clear,0,2012-12-30 03:35:00
9:55 PM,-5.8,-9.4,84,30.13,10.0,SSE,3.5,-,N/A,,Clear,160,2012-12-30 03:55:00
10:16 PM,-2.2,-5.8,85,30.13,10.0,SSE,4.6,-,N/A,,Clear,150,2012-12-30 04:16:00
10:34 PM,-0.4,-4.0,85,30.13,10.0,SSE,5.8,-,N/A,,Clear,160,2012-12-30 04:34:00
10:55 PM,1.4,-0.4,92,30.14,10.0,SSE,4.6,-,N/A,,Clear,160,2012-12-30 04:55:00
11:15 PM,1.4,-2.2,85,30.13,10.0,SE,4.6,-,N/A,,Clear,140,2012-12-30 05:15:00
11:35 PM,-4.0,-7.6,85,30.13,10.0,SE,4.6,-,N/A,,Clear,140,2012-12-30 05:35:00
11:55 PM,-5.8,-9.4,84,30.13,10.0,SE,4.6,-,N/A,,Clear,140,2012-12-30 05:55:00